Regional Weather Roundup
Issued by NWS

Home | Current Version | Previous Version | Graphics & Text | Print | Product List | Glossary On
Versions: 1 2 3 4 5 6 7 8 9 10 11 12 13 14 15 16 17 18 19 20 21 22 23 24 25 26 27 28 29 30 31 32 33 34 35 36 37 38 39 40 41 42 43 44 45 46 47 48 49 50
000
ASUS43 KIND 021759
RWRIN

WEATHER ROUNDUP FOR INDIANA
NATIONAL WEATHER SERVICE INDIANAPOLIS IN
200 PM EDT WED SEP 02 2015

NOTE: "FAIR" INDICATES FEW OR NO CLOUDS BELOW 12,000 FEET WITH NO
SIGNIFICANT WEATHER AND/OR OBSTRUCTIONS TO VISIBILITY.

* - STATION DOES NOT REPORT WEATHER SUCH AS PRECIPITATION OR FOG.

+ - STATION NOT QUALITY CONTROLLED BY THE NATIONAL WEATHER SERVICE.
    USE DATA WITH CAUTION...ESPECIALLY DEWPOINT AND RELATIVE
    HUMIDITY OBSERVATIONS.

INZ001>003-010>013-019-020-021900-
NORTHWEST INDIANA

CITY           SKY/WX    TMP DP  RH WIND       PRES   REMARKS
GARY /AIRPORT/ PTSUNNY   90  66  45 S8        30.03F
KNOX *+        MOSUNNY   88  66  48 SW8       30.03F
MONTICELLO +   MOSUNNY   88  72  59 SW7       30.05F
6HR MIN TEMP:  69; 6HR MAX TEMP:  88;


$$

LMZ046-743>745-021900-
SOUTHERN LAKE MICHIGAN

STATION/POSITION TIME  TEMP    WIND        PRES    WAVE
                       AIR SEA DIR/SP/G            HT
                 (UTC) (F)     (DEG/KT/KT) (MB)    (FT)
BURNS HARBOR     1700   80     270/  5/  5 1017.6F
MICHIGAN CITY    1700   81     220/  5/  5   N/A
5NW MICH CITY    1700   77 73  240/  4/  4   N/A     1

$$

INZ004-005-014>016-021>024-021900-
NORTH CENTRAL INDIANA

CITY           SKY/WX    TMP DP  RH WIND       PRES   REMARKS
ELKHART        SUNNY     86  70  58 W7        30.05F
GOSHEN         MOSUNNY   87  70  56 MISG      30.04F
SOUTH BEND     MOSUNNY   88  70  55 W8        30.04F
6HR MIN TEMP:  70; 6HR MAX TEMP:  88;


$$

INZ006>009-017-018-025>027-021900-
NORTHEAST INDIANA

CITY           SKY/WX    TMP DP  RH WIND       PRES   REMARKS
ANGOLA *+      SUNNY     90  73  58 W6        30.05F HX  98
FORT WAYNE     MOSUNNY   87  72  60 W8        30.07F
6HR MIN TEMP:  68; 6HR MAX TEMP:  88;


$$

INZ028-029-035-036-043>045-051>053-021900-
WEST CENTRAL INDIANA

CITY           SKY/WX    TMP DP  RH WIND       PRES   REMARKS
GREENCASTLE +  MOSUNNY   86  63  45 S5        30.10F
LAFAYETTE      MOSUNNY   87  68  52 SW6       30.06F
6HR MIN TEMP:  67; 6HR MAX TEMP:  89;

TERRE HAUTE    PTSUNNY   89  68  49 SW8       30.08F
6HR MIN TEMP:  64; 6HR MAX TEMP:  89;


$$

INZ030>032-037>040-046>048-054>057-064-065-021900-
CENTRAL INDIANA

CITY           SKY/WX    TMP DP  RH WIND       PRES   REMARKS
ANDERSON       MOSUNNY   86  63  45 CALM      30.10F
COLUMBUS       MOSUNNY   86  68  54 W7        30.10F
GREENWOOD *+   MOSUNNY   86  66  51 SW7       30.10F
INDIANAPOLIS   PTSUNNY   85  67  54 SW8       30.08F
6HR MIN TEMP:  70; 6HR MAX TEMP:  88;

-EAGLE CREEK   MOSUNNY   87  69  54 VRB6      30.08F
6HR MIN TEMP:  69; 6HR MAX TEMP:  87;

KOKOMO *+      MOSUNNY   90  70  51 SW10      30.07F HX  95
6HR MIN TEMP:  70; 6HR MAX TEMP:  90;

MT COMFORT *+  SUNNY     88  59  37 W6        30.09F
SHELBYVILLE    PTSUNNY   89  68  49 VRB7      30.08F
6HR MIN TEMP:  67; 6HR MAX TEMP:  89;


$$

INZ033-034-041-042-049-050-058-059-021900-
EAST CENTRAL INDIANA

CITY           SKY/WX    TMP DP  RH WIND       PRES   REMARKS
MUNCIE         MOSUNNY   85  71  63 NW8       30.08F
6HR MIN TEMP:  70; 6HR MAX TEMP:  86;


$$

INZ060-061-067>069-081>083-085>088-021900-
SOUTHWEST INDIANA

CITY           SKY/WX    TMP DP  RH WIND       PRES   REMARKS
EVANSVILLE     SUNNY     88  65  46 CALM      30.09F
6HR MIN TEMP:  68; 6HR MAX TEMP:  90;

HUNTINGBURG *+ MOSUNNY   88  66  48 NW3       30.10F
6HR MIN TEMP:  66; 6HR MAX TEMP:  90;


$$

INZ062-063-066-070>080-084-089>092-021900-
SOUTH CENTRAL AND SOUTHEAST INDIANA

CITY           SKY/WX    TMP DP  RH WIND       PRES   REMARKS
BLOOMINGTON    MOSUNNY   87  69  54 VRB6      30.11F
6HR MIN TEMP:  66; 6HR MAX TEMP:  87;

SEYMOUR +      PTSUNNY   88  66  48 CALM      30.09F

$$



USA.gov is the U.S. government's official web portal to all federal, state and local government web resources and services.